Location: Newark
(49.3000°N, 9.4667°E)
Time: 20:03:37
(UTC+00:00)

Transit 2A Rocket - Pass Details

Date: 25 May 2019
Orbit: 586 x 917 km, 66.7° (Epoch: 17 June)

Event Time Altitude Azimuth Distance (km) Brightness Sun altitude
Rises 20:08:38 0° 294° (WNW) 3,554 9.9 -8.0°
Reaches altitude 10° 20:12:28 10° 318° (NW) 2,590 9.5 -8.4°
Maximum altitude 20:15:47 15° 351° (N) 2,224 8.3 -8.8°
Drops below altitude 10° 20:19:02 10° 25° (NNE) 2,514 8.0 -9.1°
Sets 20:22:40 0° 49° (NE) 3,389 8.4 -9.5°
